Weather History for Burnet, TX

Change the Weather History Date:

Friday, March 28, 2014

  Actual Average Record
Temperature  
Mean Temperature 76 °F -  
Max Temperature 88 °F 69 °F 88 °F (2014)
Min Temperature 62 °F 50 °F 36 °F (2009)
Cooling Degree Days 10    
Growing Degree Days 26 (Base 50)    
Moisture  
Dew Point 55 °F    
Average Humidity 61    
Maximum Humidity 93    
Minimum Humidity 11    
Precipitation  
Precipitation 0.00 in - - ()
Sea Level Pressure  
Sea Level Pressure 29.80 in    
Wind  
Wind Speed 8 mph (SW)    
Max Wind Speed 22 mph    
Max Gust Speed 30 mph    
Visibility 8 miles    
Events Thunderstorm    
Averages and records for this station are not official NWS values.
T = Trace of Precipitation, MM = Missing Value Source: NWS Daily Summary

Daily Weather History Graph

Daily Weather History Graph

Search for Another Location

Airport:

Trip Planner

Search our weather history database for the weather conditions in past years. The results will help you decide how hot, cold, wet, or windy it might be!

Date:

Astronomy

Mar. 28, 2014 Rise Set
Actual Time 7:26 AM CDT 7:49 PM CDT
Civil Twilight 7:02 AM CDT 8:13 PM CDT
Nautical Twilight 6:34 AM CDT 8:42 PM CDT
Astronomical Twilight 6:05 AM CDT 9:10 PM CDT
Moon 5:49 AM CDT (3/28) 5:54 PM CDT (3/28)
Length of Visible Light 13h 11m
Length of Day
12h 22m
Waning Crescent, 6% of the Moon is Illuminated
Mar 28
Waning Crescent
Mar 30
New
Apr 7
First Quarter
Apr 15
Full
Apr 22
Last Quarter

Hourly Weather History & Observations

Time (CDT) Temp. Heat Index Dew Point Humidity Pressure Visibility Wind Dir Wind Speed Gust Speed Precip Events Conditions
12:53 AM 66.9 °F - 62.1 °F 84% 29.77 in 10.0 mi South 5.8 mph - N/A   Clear
1:36 AM 66.0 °F - 64.0 °F 93% 29.81 in 7.0 mi South 6.9 mph - N/A   Scattered Clouds
1:45 AM 66.9 °F - 64.0 °F 90% 29.81 in 6.0 mi South 10.4 mph - N/A   Mostly Cloudy
1:53 AM 66.9 °F - 64.9 °F 93% 29.76 in 6.0 mi South 9.2 mph - N/A   Mostly Cloudy
2:53 AM 66.9 °F - 64.9 °F 93% 29.75 in 6.0 mi SSW 5.8 mph - N/A   Overcast
3:30 AM 66.9 °F - 64.9 °F 93% 29.78 in 6.0 mi South 6.9 mph - N/A   Overcast
3:53 AM 66.9 °F - 64.0 °F 90% 29.74 in 6.0 mi South 8.1 mph - N/A   Overcast
4:14 AM 66.9 °F - 64.0 °F 90% 29.79 in 6.0 mi South 8.1 mph - N/A   Overcast
4:53 AM 68.0 °F - 64.0 °F 87% 29.73 in 7.0 mi South 6.9 mph - N/A   Overcast
5:53 AM 68.0 °F - 63.0 °F 84% 29.75 in 7.0 mi South 5.8 mph - N/A   Overcast
6:18 AM 68.0 °F - 63.0 °F 84% 29.80 in 7.0 mi South 8.1 mph - N/A   Overcast
6:53 AM 68.0 °F - 63.0 °F 84% 29.76 in 7.0 mi SSE 4.6 mph - N/A   Overcast
7:53 AM 66.9 °F - 63.0 °F 87% 29.80 in 6.0 mi South 5.8 mph - N/A   Overcast
8:53 AM 66.9 °F - 63.0 °F 87% 29.83 in 6.0 mi South 6.9 mph - N/A   Overcast
9:32 AM 69.1 °F - 63.0 °F 81% 29.87 in 7.0 mi South 5.8 mph - N/A   Partly Cloudy
9:53 AM 70.0 °F - 62.1 °F 76% 29.82 in 8.0 mi Variable 4.6 mph - N/A   Mostly Cloudy
10:53 AM 73.0 °F - 61.0 °F 66% 29.81 in 10.0 mi Variable 4.6 mph - N/A   Partly Cloudy
11:53 AM 75.9 °F - 60.1 °F 58% 29.81 in 10.0 mi SSW 5.8 mph - N/A   Clear
12:53 PM 79.0 °F - 59.0 °F 50% 29.79 in 10.0 mi Variable 4.6 mph - N/A   Scattered Clouds
1:53 PM 81.0 °F 81.3 °F 59.0 °F 47% 29.78 in 10.0 mi SW 10.4 mph - N/A   Mostly Cloudy
2:53 PM 84.0 °F 83.3 °F 57.0 °F 40% 29.75 in 10.0 mi West 10.4 mph 19.6 mph N/A Thunderstorm Partly Cloudy
3:12 PM 80.1 °F - 48.9 °F 34% 29.79 in 10.0 mi NNW 13.8 mph - N/A   Mostly Cloudy
3:20 PM 78.1 °F - 52.0 °F 40% 29.78 in 10.0 mi NNW 12.7 mph - N/A   Mostly Cloudy
3:30 PM 84.0 °F - 48.9 °F 29% 29.79 in 10.0 mi NNW 12.7 mph 18.4 mph N/A Thunderstorm Mostly Cloudy
3:45 PM 84.9 °F - 50.0 °F 30% 29.79 in 10.0 mi North 11.5 mph 19.6 mph N/A   Partly Cloudy
3:53 PM 84.0 °F - 52.0 °F 33% 29.73 in 10.0 mi North 12.7 mph 20.7 mph N/A   Clear
4:53 PM 86.0 °F - 51.1 °F 30% 29.73 in 10.0 mi North 16.1 mph 23.0 mph N/A   Clear
5:53 PM 87.1 °F - 27.0 °F 11% 29.75 in 10.0 mi NW 21.9 mph 29.9 mph N/A   Clear
6:53 PM 82.0 °F - 30.9 °F 16% 29.78 in 10.0 mi NNW 15.0 mph 27.6 mph N/A   Clear
7:53 PM 77.0 °F - 35.1 °F 22% 29.83 in 10.0 mi North 10.4 mph - N/A   Clear
8:53 PM 72.0 °F - 39.0 °F 30% 29.87 in 10.0 mi NNE 8.1 mph - N/A   Clear
9:53 PM 69.1 °F - 41.0 °F 36% 29.93 in 10.0 mi NNE 9.2 mph - N/A   Clear
10:53 PM 64.9 °F - 43.0 °F 45% 29.99 in 10.0 mi NNE 15.0 mph 21.9 mph N/A   Clear
11:53 PM 62.1 °F - 44.1 °F 52% 30.02 in 10.0 mi NNE 8.1 mph - N/A   Clear